TURKSAT 2A

Last updated on Sat Nov 12 2016 01:19:01 GMT+0000 (Greenwich Mean Time)

1 26666U 01002A 16316.57813976 -.00000047 00000-0 00000+0 0 9993 2 26666 0.6918 85.3062 0010383 199.8115 74.8048 0.98206576 58013
UTC large
Height (km)
Speed (km/s)
/
Latitude / Longitude
Inclination (degrees)
Orbital Period (minutes)
Azimuth
Elevation
Range (km)
Doppler Factor

Next 0 passes for location: London (51.5072 / 0.1276)

Sorry there are no passes over London.